Flag for U.S.A. Weather past 2 weeks in Pasadena, California, U.S.A.

Now
85 °F

Sunny.


Feels Like: 84 °F
Forecast: 69 / 88 °F
Wind: 12 mph from South

Location: Burbank-Glendale-Pasadena Airport

Current Time: Jul 13, 2014 at 5:32:12 PM

Latest Report: Jul 13, 2014 at 4:53 PM


Visibility: 10 mi

Pressure: 29.80 "Hg

Humidity: 39%

Dew point: 57 °F

Location of PasadenaLocation

Historic Weather in Pasadena — Graph

°F

Pasadena temperature yesterday

Maximum temperature yesterday: 84 °F (at 2:53 PM)
Minimum temperature yesterday: 64 °F (at 5:53 AM)
Average temperature yesterday: 73 °F

Past Weeks' High & Low Weather Summary

 TemperatureHumidityPressure
High93 °F (Jul 3, 3:53 PM)90% (Jul 3, 2:53 AM)29.99 "Hg (Jul 3, 2:53 AM)
Low63 °F (Jul 3, 5:53 AM)17% (Jul 5, 3:53 PM)29.76 "Hg (Jul 1, 5:53 PM)
Average74 °F62%29.87 "Hg
* Reported Jun 28 3:53 PM — Jul 13 3:53 PM, Pasadena, Weather by CustomWeather, © 2014

Note: Actual official high and low records may vary slightly from our data, if they occured in-between our weather recording intervals... More about our weather records

Advertising

Pasadena weather history for previous 24 hours

 ConditionsComfort  
Time TempWeatherWind HumidityBarometerVisibility
3:53 PM
Jul 13
86 °FSunny.12 mph40%29.81 "Hg10 mi
2:53 PM87 °FSunny.13 mph37%29.83 "Hg10 mi
1:53 PM87 °FSunny.10 mph39%29.84 "Hg10 mi
12:53 PM86 °FSunny.8 mph42%29.85 "Hg10 mi
11:53 AM84 °FSunny.10 mph43%29.86 "Hg10 mi
10:53 AM85 °FSunny.7 mph40%29.87 "Hg10 mi
9:53 AM82 °FSunny.No wind40%29.86 "Hg10 mi
8:53 AM76 °FSunny.No wind48%29.88 "Hg10 mi
7:53 AM74 °FSunny.No wind50%29.88 "Hg10 mi
6:53 AM69 °FSunny.No wind55%29.88 "Hg10 mi
5:53 AM68 °FClear.No wind59%29.88 "Hg10 mi
4:53 AM68 °FClear.No wind61%29.88 "Hg10 mi
3:53 AM69 °FClear.5 mph55%29.87 "Hg10 mi
2:53 AM69 °FClear.No wind66%29.88 "Hg10 mi
1:53 AM70 °FClear.No wind68%29.89 "Hg10 mi
12:53 AM70 °FClear.3 mph68%29.90 "Hg10 mi
11:53 PM
Jul 12
71 °FClear.5 mph61%29.90 "Hg10 mi
10:53 PM71 °FClear.5 mph63%29.91 "Hg10 mi
9:53 PM71 °FClear.8 mph63%29.91 "Hg10 mi
8:53 PM72 °FSunny.7 mph61%29.89 "Hg10 mi
7:53 PM73 °FSunny.9 mph59%29.88 "Hg10 mi
6:53 PM78 °FSunny.8 mph46%29.87 "Hg10 mi
5:53 PM81 °FSunny.7 mph42%29.87 "Hg10 mi
Weather by CustomWeather, © 2014

See weather overviewHow to use our weather pages